TimeEDT,TemperatureF,Dew PointF,Humidity,Sea Level PressureIn,VisibilityMPH,Wind Direction,Wind SpeedMPH,Gust SpeedMPH,PrecipitationIn,Events,Conditions,WindDirDegrees,DateUTC
12:53 AM,57.0,55.9,96,29.91,3.0,Calm,Calm,-,N/A,,Clear,0,2012-10-06 04:53:00
1:53 AM,55.9,55.0,97,29.89,3.0,Calm,Calm,-,N/A,,Clear,0,2012-10-06 05:53:00
2:02 AM,55.4,55.4,100,29.89,2.5,Calm,Calm,-,N/A,,Partly Cloudy,0,2012-10-06 06:02:00
2:21 AM,55.4,55.4,100,29.88,3.0,Calm,Calm,-,N/A,,Partly Cloudy,0,2012-10-06 06:21:00
2:37 AM,55.4,55.4,100,29.87,2.5,Calm,Calm,-,N/A,,Partly Cloudy,0,2012-10-06 06:37:00
2:53 AM,55.9,55.0,97,29.86,2.5,Calm,Calm,-,N/A,,Partly Cloudy,0,2012-10-06 06:53:00
3:04 AM,55.4,55.4,100,29.86,3.0,Calm,Calm,-,N/A,,Scattered Clouds,0,2012-10-06 07:04:00
3:13 AM,55.4,55.4,100,29.85,2.5,Calm,Calm,-,N/A,,Partly Cloudy,0,2012-10-06 07:13:00
3:53 AM,55.9,55.0,97,29.83,2.5,Calm,Calm,-,N/A,,Clear,0,2012-10-06 07:53:00
4:00 AM,55.4,55.4,100,29.84,3.0,Calm,Calm,-,N/A,,Clear,0,2012-10-06 08:00:00
4:53 AM,57.0,55.9,96,29.82,5.0,Calm,Calm,-,N/A,,Clear,0,2012-10-06 08:53:00
5:53 AM,57.0,55.9,96,29.82,6.0,Calm,Calm,-,N/A,,Partly Cloudy,0,2012-10-06 09:53:00
6:53 AM,57.9,55.0,90,29.82,7.0,Calm,Calm,-,N/A,,Partly Cloudy,0,2012-10-06 10:53:00
7:53 AM,59.0,55.9,90,29.81,5.0,Calm,Calm,-,N/A,,Partly Cloudy,0,2012-10-06 11:53:00
8:53 AM,61.0,57.0,87,29.82,6.0,SSW,3.5,-,0.00,Rain,Light Rain,210,2012-10-06 12:53:00
9:53 AM,63.0,57.9,84,29.83,7.0,West,3.5,-,0.01,,Overcast,270,2012-10-06 13:53:00
10:53 AM,63.0,57.0,81,29.85,6.0,West,4.6,-,N/A,,Haze,280,2012-10-06 14:53:00
11:53 AM,62.1,53.1,72,29.88,10.0,WNW,8.1,23.0,N/A,,Overcast,290,2012-10-06 15:53:00
12:24 PM,59.0,50.0,72,29.91,10.0,WNW,11.5,24.2,N/A,,Mostly Cloudy,290,2012-10-06 16:24:00
12:53 PM,62.1,50.0,65,29.91,10.0,Variable,6.9,20.7,N/A,,Overcast,0,2012-10-06 16:53:00
1:53 PM,62.1,48.9,62,29.91,10.0,WNW,10.4,16.1,N/A,,Mostly Cloudy,300,2012-10-06 17:53:00
2:53 PM,59.0,44.1,58,29.95,10.0,NW,12.7,21.9,N/A,,Overcast,320,2012-10-06 18:53:00
3:53 PM,57.9,43.0,58,29.96,10.0,NW,6.9,16.1,N/A,,Mostly Cloudy,310,2012-10-06 19:53:00
4:53 PM,59.0,41.0,51,29.95,10.0,WNW,8.1,-,N/A,,Mostly Cloudy,300,2012-10-06 20:53:00
5:53 PM,59.0,41.0,51,29.95,10.0,West,3.5,-,N/A,,Clear,260,2012-10-06 21:53:00
6:53 PM,53.1,44.1,71,29.97,10.0,Calm,Calm,-,N/A,,Clear,0,2012-10-06 22:53:00
7:53 PM,48.9,45.0,86,30.00,10.0,Calm,Calm,-,N/A,,Clear,0,2012-10-06 23:53:00
8:53 PM,46.9,44.1,90,30.03,10.0,Calm,Calm,-,N/A,,Clear,0,2012-10-07 00:53:00
9:53 PM,46.0,43.0,89,30.06,10.0,NW,4.6,-,N/A,,Clear,310,2012-10-07 01:53:00
10:53 PM,46.0,43.0,89,30.08,10.0,Calm,Calm,-,N/A,,Clear,0,2012-10-07 02:53:00